Zurück zum Katalog

ATLAS 5 CENTAUR DEB

LostHEO
NORAD 43949·DEBRIS·🇺🇸 United States

Gestartet Sep 17, 2014 von Cape Canaveral Space Force Station

Loading…

Nächste Überflüge (nächste 24 Stunden)

TLE

VeraltetSource: Space-Track

Epoche: Sep 13, 2025, 09:25 UTC

1 43949U 14055C   25256.39304734 -.00000155  00000-0  00000-0 0  9999
2 43949  20.9210 115.8702 4982413 215.6192  97.7435  1.95774341 28305

Verfolge ATLAS 5 CENTAUR DEB in Echtzeit mit AllMySat

Download on the App Store